SCP
3 2 2 2 2 2 2 2 3 3 3 3 3 3 2 2 2 2 2 2 2 2 2 2 3 3 2 2 2 2 1 1 1 1 1 0 0 0 0 0 0 0 0
2 2 2 2 2 2 2 2 2 2 2 2 2 2 2 2 2 2 2 2 2 2 2 2 2 3 2 2 2 2 1 1 1 1 0 0 0 0 0 0 0 0 0
2 2 1 1 1 2 2 2 2 2 2 2 2 2 2 2 2 2 2 2 2 2 2 2 2 2 2 2 2 2 1 1 1 1 0 0 0 0 0 0 0 0 0
1 1 1 1 1 1 1 1 1 1 1 1 1 1 1 1 1 1 1 1 1 2 2 2 2 2 2 2 2 2 1 1 1 1 1 0 0 0 0 0 0 0 0
1 1 1 1 1 1 1 1 1 1 1 1 1 1 1 1 1 1 1 1 1 1 1 1 2 2 2 2 2 2 1 1 1 1 1 0 0 0 0 0 0 0 0
0 0 0 1 1 1 1 1 1 1 1 1 1 1 1 1 1 1 1 1 1 1 1 1 1 1 1 1 1 1 1 1 1 1 1 0 0 0 0 0 0 0 0
0 0 0 0 1 1 1 1 1 1 1 1 0 0 0 0 0 0 0 0 0 0 1 1 1 1 1 1 1 1 1 1 1 1 1 0 0 0 0 0 0 0 0
0 0 0 0 0 1 1 1 1 1 1 1 0 0 0 0 0 0 0 0 0 0 0 0 0 1 1 1 1 1 1 1 1 1 0 0 0 0 0 0 0 0 0
0 0 0 0 0 0 1 1 1 1 1 0 0 0 0 0 0 0 0 0 0 0 0 0 0 0 0 1 1 1 0 0 0 0 0 0 0 0 0 0 0 0 0
0 0 0 0 0 0 0 0 1 0 0 0 0 0 0 0 0 0 0 0 0 0 0 0 0 0 0 0 0 0 0 0 0 0 0 0 0 0 0 0 0 0 0
0 0 0 0 0 0 0 0 0 0 0 0 0 0 0 0 0 0 0 0 0 0 0 0 0 0 0 0 0 0 0 0 0 0 0 0 0 0 0 0 0 0 0
0 0 0 0 0 0 0 0 0 0 0 0 0 0 0 0 0 0 0 0 0 0 0 0 0 0 0 0 0 0 0 0 0 0 0 0 0 0 0 0 0 0 0
0 0 0 0 0 0 0 0 0 0 0 0 0 0 0 0 0 0 0 0 0 0 0 0 0 0 0 0 0 0 0 0 0 0 0 0 0 0 0 0 0 0 0
0 0 0 0 0 0 0 0 0 0 0 0 0 0 0 0 0 0 0 0 0 0 0 0 0 0 0 0 0 0 0 0 0 0 0 0 0 0 0 0 0 0 0
0 0 0 0 0 0 0 0 0 0 0 0 0 0 0 0 0 0 0 0 0 0 0 0 0 0 0 0 0 0 0 0 0 0 0 0 0 0 0 0 0 0 0
0 0 0 0 0 0 0 0 0 0 0 0 0 0 0 0 0 0 0 0 0 0 0 0 0 0 0 0 0 0 0 0 0 0 0 0 0 0 0 0 0 0 0
0 0 0 0 0 0 0 0 0 0 0 0 0 0 0 0 0 0 0 0 0 0 0 0 0 0 0 0 0 0 0 0 0 0 0 0 0 0 0 0 0 0 0
0 0 0 0 0 0 0 0 0 0 0 0 0 0 0 0 0 0 0 0 0 0 0 0 0 0 0 0 0 0 0 0 0 -0 0 0 0 0 0 0 0 0 0
0 0 0 0 0 0 0 0 0 0 0 0 0 0 0 0 0 0 0 0 0 0 0 0 0 0 0 0 0 0 0 0 0 -0 -0 0 0 0 0 0 0 0 0
0 0 0 0 0 0 0 0 0 0 0 0 0 0 0 0 0 0 0 0 0 0 0 0 0 0 0 0 0 0 0 0 0 -0 -0 0 0 0 0 0 0 0 0
0 0 0 0 0 0 0 0 0 0 0 0 0 0 0 0 0 0 0 0 0 0 0 0 0 0 0 0 0 0 0 0 0 0 0 0 0 0 0 0 0 0 0
0 0 0 0 0 -0 -0 -0 0 0 0 0 0 0 0 0 0 0 0 0 0 0 0 0 0 0 0 0 0 0 0 0 0 0 0 0 0 0 0 0 0 0 0
0 0 0 0 0 0 -0 -0 -0 0 0 0 0 0 0 0 0 0 0 0 0 0 0 0 0 0 0 -0 -0 -0 -0 0 0 0 0 0 0 0 0 0 0 0 0
0 0 0 0 0 0 0 0 -0 0 0 0 0 0 0 0 0 0 0 0 0 0 0 0 0 0 0 0 0 0 0 0 0 0 0 0 0 0 0 0 0 0 0
0 0 0 0 0 0 0 0 -0 -0 0 0 0 0 0 0 0 0 0 0 0 0 0 0 0 0 0 0 0 0 0 0 0 0 0 0 0 0 0 0 0 0 0
0 0 0 0 -0 0 0 0 -0 -0 -0 0 0 0 0 0 0 0 0 0 0 0 0 0 0 0 0 0 0 0 0 0 0 0 0 0 0 0 0 0 0 0 0
Wind_Speed
6 7 8 8 8 7 6 4 3 2 1 1 1 3 4 4 4 4 5 5 5 6 6 6 6 5 5 6 6 5 5 4 3 2 3 4 5 6 5 5 5 6 6
6 7 7 7 7 6 5 4 3 2 0 1 2 3 4 4 4 4 5 6 6 6 6 7 6 6 6 7 7 6 4 4 4 4 2 3 4 4 5 3 4 4 3
7 6 6 6 6 6 5 4 3 2 1 1 1 2 2 3 3 3 3 5 6 6 6 7 6 6 7 7 8 8 8 6 4 5 5 4 5 3 3 2 1 2 2
6 6 6 5 5 4 4 4 3 2 1 1 0 1 1 3 4 3 4 5 5 6 6 6 7 7 6 8 8 8 6 6 6 4 5 4 4 3 2 2 1 2 2
6 6 6 5 5 5 5 4 3 2 1 1 0 0 2 3 3 3 5 5 5 5 5 5 5 6 6 7 8 7 7 7 7 5 4 4 4 4 3 3 2 2 1
6 6 5 5 4 4 4 4 4 2 2 1 0 0 2 3 4 5 5 5 4 4 5 5 5 6 6 7 8 8 8 8 8 6 5 5 4 5 4 5 3 2 2
7 7 7 6 5 5 5 5 5 3 2 2 1 0 1 2 3 4 4 5 4 4 6 6 6 6 6 7 7 7 8 8 8 7 6 6 5 3 4 3 2 1 1
7 8 8 8 7 7 6 6 5 4 3 2 1 1 0 1 1 2 3 4 4 5 6 7 7 7 6 6 6 5 7 6 7 8 6 5 5 4 4 4 3 2 1
9 8 8 7 7 7 7 7 6 5 4 3 2 1 1 0 1 2 3 3 4 5 6 7 7 6 6 5 5 5 6 6 6 6 6 5 4 4 4 3 4 5 3
6 6 7 7 7 7 6 6 6 6 4 4 3 2 1 0 1 2 3 4 5 5 6 6 6 5 4 4 3 3 3 4 5 4 5 4 3 3 3 3 3 3 4
5 5 6 6 6 6 6 6 6 5 4 4 3 3 2 1 0 1 2 3 4 5 6 6 6 5 3 2 1 1 0 1 2 4 6 6 6 4 4 4 4 3 4
3 3 4 4 5 6 6 6 6 6 5 5 4 4 3 2 1 1 2 3 4 5 5 6 5 5 3 2 1 2 4 5 5 5 7 7 7 7 5 5 5 4 4
7 5 3 3 4 5 6 7 7 7 6 6 5 4 4 3 2 2 2 2 3 4 5 5 5 4 4 3 4 6 7 8 8 8 8 8 9 9 6 6 5 4 6
9 8 6 5 4 4 5 6 7 7 7 6 6 5 5 4 4 3 2 2 2 3 4 4 4 4 4 4 5 6 7 8 9 9 8 8 8 8 7 7 6 7 8
13 12 10 8 7 6 5 5 6 7 7 7 7 7 6 5 4 3 3 2 1 2 3 3 4 4 3 4 5 6 8 9 9 8 8 8 10 10 7 7 6 7 7
14 14 13 11 10 9 8 7 7 7 7 8 8 7 6 6 5 5 3 2 1 0 1 2 3 4 4 5 7 7 7 7 8 8 7 8 9 10 12 11 10 9 8
12 12 12 12 12 11 9 8 9 7 8 9 8 7 7 7 7 6 5 4 2 1 1 1 2 3 4 6 8 9 7 7 6 6 6 7 6 7 7 9 11 10 9
11 11 11 12 12 12 11 9 7 6 8 9 8 8 8 8 7 7 6 5 3 3 3 2 2 3 3 7 8 10 7 7 6 6 7 7 5 5 7 7 7 6 6
8 8 8 9 11 12 13 11 7 5 6 8 9 9 9 9 8 8 8 6 4 4 3 3 4 4 3 6 8 8 6 6 6 5 6 7 6 8 10 8 7 6 4
8 8 8 8 10 11 12 12 9 7 7 8 9 9 10 10 10 10 8 5 5 5 5 4 4 5 4 5 8 9 5 6 5 4 4 7 8 9 10 7 7 6 3
10 9 8 8 8 9 9 10 10 10 9 8 7 8 9 10 10 9 7 7 6 6 5 5 4 5 5 6 8 8 5 6 5 4 3 3 8 10 10 7 5 4 3
10 9 7 8 8 7 7 9 10 10 11 10 8 8 9 9 9 9 8 8 8 7 6 5 4 3 4 5 6 9 8 8 6 5 3 3 7 8 8 6 6 7 7
10 8 8 9 8 7 7 8 9 10 11 11 10 8 8 8 8 10 10 8 8 7 6 6 6 4 3 4 7 8 9 10 5 5 8 7 7 6 4 5 7 6 5
10 8 8 9 9 8 8 8 9 8 9 11 11 8 7 7 8 8 8 9 9 8 8 7 7 5 4 4 4 3 4 7 6 4 5 6 5 4 3 3 4 3 3
8 8 8 9 11 10 9 9 8 7 8 10 9 8 6 7 8 8 9 11 10 12 11 9 8 8 7 9 11 8 6 5 6 6 3 2 2 1 1 2 2 2 3
9 9 9 10 11 10 10 10 8 6 7 8 8 6 5 6 7 7 6 8 8 14 15 13 11 9 11 14 15 14 13 12 12 7 4 3 3 3 3 3 2 2 2
Wind_Direction
99 88 89 91 88 79 80 83 80 61 97 187 217 249 264 265 261 252 249 250 244 235 225 230 225 216 218 221 217 213 220 229 207 220 273 276 249 246 244 243 247 247 246
97 88 93 94 98 101 96 91 96 97 118 226 222 229 242 252 248 256 261 257 255 251 242 230 226 220 221 225 221 214 216 224 194 186 202 286 302 272 248 238 242 253 254
127 116 104 104 106 110 120 124 129 127 153 235 264 286 292 297 304 294 282 274 269 263 257 247 236 228 221 229 227 218 215 225 220 194 178 195 235 275 289 258 242 274 270
135 133 127 121 124 139 143 139 137 130 136 109 50 308 289 286 284 286 286 289 281 274 265 255 244 236 231 233 233 226 216 214 225 217 212 205 184 197 276 296 264 244 239
156 157 158 162 163 162 157 151 147 150 153 106 104 305 291 278 290 303 307 302 294 285 281 272 264 255 244 238 235 230 220 214 217 208 200 210 215 205 204 257 283 298 272
177 180 185 177 175 167 158 155 152 167 162 132 85 345 304 308 316 317 316 312 306 300 298 290 271 260 252 245 239 232 227 222 219 213 200 189 189 198 196 221 232 246 268
189 193 196 194 190 180 173 168 166 180 182 155 134 68 311 318 315 313 314 314 310 305 301 298 285 273 260 251 241 232 230 225 218 216 211 204 205 180 171 183 197 205 283
206 204 204 199 194 187 181 176 174 180 181 167 174 180 335 335 316 314 310 308 302 297 298 296 287 278 269 261 245 236 233 224 218 217 207 199 197 185 177 171 161 145 66
216 213 208 200 196 193 190 181 177 181 184 180 175 165 124 21 319 318 319 313 308 307 311 306 298 285 274 264 249 238 235 223 215 207 197 192 185 175 180 173 162 151 145
226 218 208 204 202 196 190 179 176 181 186 180 176 161 157 197 300 323 326 319 316 317 321 322 317 306 293 283 259 248 234 216 204 190 180 174 161 151 148 145 136 143 141
238 226 218 211 200 192 185 183 184 179 178 179 174 161 173 194 274 314 311 314 316 320 324 327 324 317 310 316 315 309 97 130 137 152 145 133 119 116 112 111 107 105 113
301 261 233 214 200 199 197 193 190 184 186 182 176 175 175 175 199 281 301 313 318 321 323 325 331 336 332 349 42 80 78 75 78 98 113 112 106 98 96 95 95 94 100
354 343 318 255 227 216 208 202 197 194 190 182 178 177 179 182 202 232 271 298 314 324 332 339 342 355 6 33 61 75 75 78 77 74 86 98 101 93 89 89 88 88 91
2 354 333 300 275 247 223 210 205 199 191 184 180 186 195 195 199 207 234 277 304 326 338 343 352 9 24 54 72 85 86 84 81 77 76 81 90 95 95 91 90 94 92
3 357 346 330 314 290 256 231 216 204 192 185 189 198 199 193 187 192 212 246 297 332 344 355 14 24 35 76 95 94 98 94 90 84 79 78 83 86 89 97 96 98 97
356 353 351 342 328 310 280 249 229 213 194 192 198 197 191 190 190 194 199 209 247 331 22 27 29 35 46 78 93 100 96 96 97 93 87 80 70 77 82 89 92 101 107
348 343 341 337 326 318 302 265 239 217 199 199 199 194 191 194 195 192 189 194 196 172 138 93 72 66 62 84 101 107 107 105 104 101 93 87 76 74 82 79 74 75 88
336 334 330 327 326 325 321 303 263 224 208 203 202 199 194 195 193 188 192 194 185 179 170 158 140 110 93 95 97 100 98 95 94 97 101 98 79 83 96 89 75 65 63
313 312 317 320 324 330 330 323 300 261 228 216 210 203 196 194 191 191 195 191 179 180 175 164 154 142 122 111 112 108 99 96 92 94 99 101 92 96 99 94 86 65 38
309 310 313 321 332 332 336 333 321 300 267 246 228 208 194 192 193 194 190 182 176 181 172 165 164 158 154 141 129 124 115 109 105 91 88 99 106 101 99 99 96 79 37
295 302 308 310 311 319 330 332 326 314 301 286 257 220 199 194 193 188 181 175 174 172 170 168 168 165 165 154 142 137 133 139 136 129 120 115 115 105 102 102 97 101 103
291 294 296 297 299 307 317 315 313 312 312 302 274 235 208 198 192 182 181 176 172 172 173 168 168 170 170 166 154 148 151 152 144 151 153 149 131 111 103 96 89 89 91
290 288 287 292 295 294 298 302 301 310 313 306 288 257 222 202 185 180 180 176 175 176 177 174 176 178 175 176 171 157 155 156 147 158 163 158 138 107 87 77 81 83 85
289 287 290 293 293 289 283 282 287 296 308 303 291 268 232 207 192 183 178 178 180 181 181 180 180 175 170 172 168 159 148 147 135 134 150 142 120 94 77 63 71 86 106
288 284 283 285 287 289 283 281 284 291 301 301 291 273 246 215 197 189 186 185 189 187 182 185 179 175 184 195 178 165 165 162 154 129 100 93 94 92 71 68 85 92 97
291 289 286 283 285 286 284 281 276 274 289 298 297 282 259 230 201 188 185 196 188 189 186 181 176 188 190 178 179 179 175 168 154 134 138 157 167 172 170 158 146 136 137